Iridium Next SV172
operational LEOCIRCULARPOLAR
Über Iridium Next SV172
Group: 3 satellites
Beschreibung wird geladen...
Live-Position
3D-Globus wird geladen...
Nächste Überflüge
Höhenverlauf
Altitude vs Time
uPlot chart will show altitude changes over time
Zweizeiliger Elementsatz
1 43927U 19002F 25351.71243609 .00000209 00000-0 67726-4 0 9998
2 43927 86.3964 69.4383 0001949 93.3321 266.8098 14.34215124362951
Epoch: 17. Dez. 2025 •
Age: 17 hours
Aktueller Status
Höhe 785.3 km
Geschwindigkeit 7.46 km/s
Subsatellitenpunkt -18.39°S,
165.67°W
Startdatum 11. Jan. 2019
Alter 6.9 years
Typ communications
Technische Details
Klassifizierung Payload
Masse 860.00 kg
Trockenmasse 700.00 kg
Gesamtmasse 860.00 kg
Länge 3.10 m
Durchmesser 1.50 m
Spannweite 9.40 m
Form Half Hex Prism+2 pan
Hersteller NGISGA
Bus-Typ EliteBus
Phasenstatus In Orbit
Besitzer/Staat IRIDS/US
Große Konstellationen
Loading constellations...